Regional Weather Roundup
Issued by NWS

Home | Current Version | Previous Version | Graphics & Text | Print | Product List | Glossary Off
Versions: 1 2 3 4 5 6 7 8 9 10 11 12 13 14 15 16 17 18 19 20 21 22 23 24 25 26 27 28 29 30 31 32 33 34 35 36 37 38 39 40 41 42 43 44 45 46 47 48 49 50

000
ASUS43 KDMX 190401
RWRIA

WEATHER ROUNDUP FOR IOWA
NATIONAL WEATHER SERVICE DES MOINES IA
1000 PM CST SUN FEB 18 2018

NOTE: "FAIR" INDICATES FEW OR NO CLOUDS BELOW 12,000 FEET WITH NO
SIGNIFICANT WEATHER AND/OR OBSTRUCTIONS TO VISIBILITY.

* - THESE STATIONS ARE NOT NWS STATIONS...THUS NOT UNDER NWS
QUALITY CONTROL.  THEY ALSO DO NOT REPORT WEATHER SUCH
AS PRECIPITATION OR FOG.

IAZ001>003-012>014-020>022-031>034-043>046-190500-
   NORTHWEST IOWA

CITY           SKY/WX    TMP DP  RH WIND       PRES   REMARKS
CARROLL *      CLOUDY    36  32  87 S7        29.65R WCI  30
CHEROKEE *     CLOUDY    33  31  94 NE5       29.68R WCI  28
DENISON *      CLOUDY    41  34  75 CALM      29.66R
LE MARS *      CLOUDY    34  30  86 N20G25    29.67F WCI  22
ORANGE CITY *  CLEAR     32  28  86 N15G22    29.68R WCI  22
SHELDON *      MOCLDY    28  25  86 N20       29.68R WCI  15
SIOUX CITY     CLOUDY    31  28  89 NW16      29.69R WCI  20
SPENCER        CLEAR     32  25  75 N18       29.68R WCI  20
STORM LAKE *   CLOUDY    37  32  81 W5        29.64F WCI  34
$$

IAZ055>058-069>071-079>083-090>094-190500-
   SOUTHWEST IOWA

CITY           SKY/WX    TMP DP  RH WIND       PRES   REMARKS
ATLANTIC *     CLOUDY    41  36  81 S7        29.64F
AUDUBON *      CLOUDY    43  36  75 CALM      29.65S
CLARINDA *     CLOUDY    48  39  71 S6        29.68S
COUNCIL BLFS * CLOUDY    43  43 100 S8        29.63S
CRESTON *      CLOUDY    46  34  61 SE9       29.69S
HARLAN  *      CLEAR     39  36  87 CALM      29.67S
LAMONI         CLOUDY    48  32  53 S7        29.70S
RED OAK *      CLOUDY    48  37  66 S7        29.66S
SHENANDOAH *   CLOUDY    50  41  71 SE7       29.65F
$$

IAZ047>049-059>061-072>074-084-190500-
   CENTRAL IOWA

CITY           SKY/WX    TMP DP  RH WIND       PRES   REMARKS
AMES           MOCLDY    40  31  70 S8        29.68S WCI  34
ANKENY *       CLOUDY    43  32  65 S7        29.69F
BOONE *        CLOUDY    39  32  75 S7        29.66S WCI  34
CHARITON *     CLOUDY    46  34  61 S10       29.70F
DES MOINES     CLOUDY    47  33  58 S9        29.69R
GRINNELL*      CLOUDY    40  32  72 SE7       29.73S
KNOXVILLE *    CLOUDY    46  30  53 SE6       29.69F
MARSHALLTOWN   CLOUDY    39  32  76 SE8       29.69F WCI  33
NEWTON *       CLOUDY    39  32  75 SE9       29.71S WCI  33
PELLA *        CLOUDY    46  32  57 SE8       29.73S
$$

IAZ004>006-015-016-023>025-035-036-190500-
   NORTH CENTRAL IOWA

CITY           SKY/WX    TMP DP  RH WIND       PRES   REMARKS
CLARION *      CLOUDY    37  37 100 S12       29.66S WCI  30
ESTHERVILLE    CLEAR     30  25  81 N17       29.68R WCI  18
FORT DODGE *   CLOUDY    43  29  57 S8        29.66R
MASON CITY     CLOUDY    36  30  79 S9        29.68R WCI  29
FOREST CITY *  CLOUDY    37  32  81 CALM      29.66S
WEBSTER CITY * CLOUDY    37  32  81 SE9       29.65R WCI  31
IOWA FALLS *   CLOUDY    37  32  84 SE8       29.69S WCI  30
$$

IAZ007>011-017>019-026>030-037>042-050>054-066-190500-
   NORTHEAST IOWA

CITY           SKY/WX    TMP DP  RH WIND       PRES   REMARKS
CEDAR RAPIDS   CLOUDY    41  30  65 S13       29.74F
CHARLES CITY * CLOUDY    37  34  87 SE13      29.70S WCI  29
DECORAH *      CLOUDY    37  30  75 S12G18    29.71S WCI  30
DUBUQUE        CLOUDY    37  29  72 S17       29.79F WCI  27
MONTICELLO *   CLOUDY    39  30  70 SE12      29.78F WCI  32
OELWEIN *      CLOUDY    37  36  93 SE15      29.73S WCI  28
WATERLOO       CLOUDY    38  30  73 SE14      29.71S WCI  30
$$

IAZ064-065-067-068-078-190500-
   EAST CENTRAL IOWA

CITY           SKY/WX    TMP DP  RH WIND       PRES   REMARKS
DAVENPORT      CLOUDY    43  31  62 S22G31    29.83S
IOWA CITY      CLOUDY    42  29  59 SE7       29.79F
MT. PLEASANT * CLOUDY    41  30  65 S12       29.79F
MUSCATINE *    CLOUDY    43  30  61 S10G17    29.80F
QUAD CITIES    CLOUDY    43  32  65 S10       29.82R
$$

IAZ062-063-075>077-085>089-095>099-190500-
   SOUTHEAST IOWA

CITY           SKY/WX    TMP DP  RH WIND       PRES   REMARKS
BURLINGTON     CLOUDY    44  29  55 S9        29.81R
FAIRFIELD *    CLOUDY    43  28  56 SE7       29.76F
FORT MADISON * CLOUDY    43  32  65 SE7       29.82S
KEOKUK *       CLOUDY    46  28  49 CALM      29.80R
OSKALOOSA *    CLOUDY    39  32  75 SE9       29.73F WCI  33
OTTUMWA        CLOUDY    46  29  51 S9        29.73F
WASHINGTON *   CLOUDY    41  34  75 S10       29.78F
$$

ABBREVIATIONS USED IN REMARKS
   TC - TEMPERATURES IN CELSIUS
  WCI - WIND CHILL INDEX
   HX - HEAT INDEX
  VSB - VISIBILITY
$$




USA.gov is the U.S. government's official web portal to all federal, state and local government web resources and services.